Year,Month,Day,Hour,Minute,Value (Times are PST for temperature in C)
2009,04,15,00,00,1.20
2009,04,15,00,01,1.20
2009,04,15,00,02,1.20
2009,04,15,00,03,1.20
2009,04,15,00,04,1.20
2009,04,15,00,05,1.20
2009,04,15,00,06,1.20
2009,04,15,00,07,1.20
2009,04,15,00,08,1.20
2009,04,15,00,09,1.20
2009,04,15,00,10,1.20
2009,04,15,00,11,1.20
2009,04,15,00,12,1.20
2009,04,15,00,13,1.20
2009,04,15,00,14,1.10
2009,04,15,00,15,1.10
2009,04,15,00,16,1.10
2009,04,15,00,17,1.10
2009,04,15,00,18,1.10
2009,04,15,00,19,1.10
2009,04,15,00,20,1.10
2009,04,15,00,21,1.10
2009,04,15,00,22,1.10
2009,04,15,00,23,1.00
2009,04,15,00,24,1.00
2009,04,15,00,25,1.00
2009,04,15,00,26,1.00
2009,04,15,00,27,1.00
2009,04,15,00,28,1.00
2009,04,15,00,29,1.00
2009,04,15,00,30,1.00
2009,04,15,00,31,1.00
2009,04,15,00,32,1.00
2009,04,15,00,33,1.00
2009,04,15,00,34,1.00
2009,04,15,00,35,0.90
2009,04,15,00,36,0.90
2009,04,15,00,37,1.00
2009,04,15,00,38,1.00
2009,04,15,00,39,1.00
2009,04,15,00,40,1.00
2009,04,15,00,41,1.00
2009,04,15,00,42,1.00
2009,04,15,00,43,1.00
2009,04,15,00,44,1.00
2009,04,15,00,45,1.00
2009,04,15,00,46,1.00
2009,04,15,00,47,1.00
2009,04,15,00,48,1.00
2009,04,15,00,49,1.00
2009,04,15,00,50,1.00
2009,04,15,00,51,1.00
2009,04,15,00,52,1.00
2009,04,15,00,53,1.00
2009,04,15,00,54,1.00
2009,04,15,00,55,1.00
2009,04,15,00,56,0.90
2009,04,15,00,57,0.90
2009,04,15,00,58,0.90
2009,04,15,00,59,0.90
2009,04,15,01,00,0.90
2009,04,15,01,01,0.90
2009,04,15,01,02,0.90
2009,04,15,01,03,0.90
2009,04,15,01,04,0.80
2009,04,15,01,05,0.80
2009,04,15,01,06,0.80
2009,04,15,01,07,0.80
2009,04,15,01,08,0.80
2009,04,15,01,09,0.80
2009,04,15,01,10,0.80
2009,04,15,01,11,0.80
2009,04,15,01,12,0.80
2009,04,15,01,13,0.80
2009,04,15,01,14,0.80
2009,04,15,01,15,0.80
2009,04,15,01,16,0.80
2009,04,15,01,17,0.80
2009,04,15,01,18,0.80
2009,04,15,01,19,0.80
2009,04,15,01,20,0.80
2009,04,15,01,21,0.80
2009,04,15,01,22,0.80
2009,04,15,01,23,0.80
2009,04,15,01,24,0.90
2009,04,15,01,25,0.90
2009,04,15,01,26,0.90
2009,04,15,01,27,0.90
2009,04,15,01,28,0.80
2009,04,15,01,29,0.80
2009,04,15,01,30,0.80
2009,04,15,01,31,0.80
2009,04,15,01,32,0.80
2009,04,15,01,33,0.80
2009,04,15,01,34,0.80
2009,04,15,01,35,0.80
2009,04,15,01,36,0.80
2009,04,15,01,37,0.80
2009,04,15,01,38,0.80
2009,04,15,01,39,0.80
2009,04,15,01,40,0.80
2009,04,15,01,41,0.80
2009,04,15,01,42,0.80
2009,04,15,01,43,0.80
2009,04,15,01,44,0.80
2009,04,15,01,45,0.80
2009,04,15,01,46,0.70
2009,04,15,01,47,0.70
2009,04,15,01,48,0.70
2009,04,15,01,49,0.70
2009,04,15,01,50,0.70
2009,04,15,01,51,0.70
2009,04,15,01,52,0.70
2009,04,15,01,53,0.70
2009,04,15,01,54,0.70
2009,04,15,01,55,0.70
2009,04,15,01,56,0.70
2009,04,15,01,57,0.60
2009,04,15,01,58,0.60
2009,04,15,01,59,0.60
2009,04,15,02,00,0.60
2009,04,15,02,01,0.60
2009,04,15,02,02,0.60
2009,04,15,02,03,0.60
2009,04,15,02,04,0.60
2009,04,15,02,05,0.60
2009,04,15,02,06,0.60
2009,04,15,02,07,0.60
2009,04,15,02,08,0.70
2009,04,15,02,09,0.70
2009,04,15,02,10,0.70
2009,04,15,02,11,0.70
2009,04,15,02,12,0.70
2009,04,15,02,13,0.70
2009,04,15,02,14,0.70
2009,04,15,02,15,0.70
2009,04,15,02,16,0.70
2009,04,15,02,17,0.70
2009,04,15,02,18,0.60
2009,04,15,02,19,0.60
2009,04,15,02,20,0.60
2009,04,15,02,21,0.60
2009,04,15,02,22,0.60
2009,04,15,02,23,0.60
2009,04,15,02,24,0.60
2009,04,15,02,25,0.50
2009,04,15,02,26,0.50
2009,04,15,02,27,0.50
2009,04,15,02,28,0.50
2009,04,15,02,29,0.50
2009,04,15,02,30,0.50
2009,04,15,02,31,0.50
2009,04,15,02,32,0.40
2009,04,15,02,33,0.40
2009,04,15,02,34,0.40
2009,04,15,02,35,0.40
2009,04,15,02,36,0.40
2009,04,15,02,37,0.40
2009,04,15,02,38,0.40
2009,04,15,02,39,0.40
2009,04,15,02,40,0.40
2009,04,15,02,41,0.40
2009,04,15,02,42,0.40
2009,04,15,02,43,0.40
2009,04,15,02,44,0.40
2009,04,15,02,45,0.40
2009,04,15,02,46,0.40
2009,04,15,02,47,0.40
2009,04,15,02,48,0.40
2009,04,15,02,49,0.40
2009,04,15,02,50,0.40
2009,04,15,02,51,0.40
2009,04,15,02,52,0.40
2009,04,15,02,53,0.40
2009,04,15,02,54,0.40
2009,04,15,02,55,0.30
2009,04,15,02,56,0.30
2009,04,15,02,57,0.30
2009,04,15,02,58,0.30
2009,04,15,02,59,0.30
2009,04,15,03,00,0.30
2009,04,15,03,01,0.30
2009,04,15,03,02,0.30
2009,04,15,03,03,0.30
2009,04,15,03,04,0.30
2009,04,15,03,05,0.30
2009,04,15,03,06,0.30
2009,04,15,03,07,0.30
2009,04,15,03,08,0.30
2009,04,15,03,09,0.30
2009,04,15,03,10,0.30
2009,04,15,03,11,0.30
2009,04,15,03,12,0.30
2009,04,15,03,13,0.30
2009,04,15,03,14,0.30
2009,04,15,03,15,0.30
2009,04,15,03,16,0.30
2009,04,15,03,17,0.30
2009,04,15,03,18,0.20
2009,04,15,03,19,0.20
2009,04,15,03,20,0.20
2009,04,15,03,21,0.20
2009,04,15,03,22,0.20
2009,04,15,03,23,0.20
2009,04,15,03,24,0.20
2009,04,15,03,25,0.20
2009,04,15,03,26,0.20
2009,04,15,03,27,0.10
2009,04,15,03,28,0.10
2009,04,15,03,29,0.10
2009,04,15,03,30,0.10
2009,04,15,03,31,0.10
2009,04,15,03,32,0.10
2009,04,15,03,33,0.10
2009,04,15,03,34,0.10
2009,04,15,03,35,0.10
2009,04,15,03,36,0.10
2009,04,15,03,37,0.10
2009,04,15,03,38,0.10
2009,04,15,03,39,0.10
2009,04,15,03,40,0.10
2009,04,15,03,41,0.10
2009,04,15,03,42,0.10
2009,04,15,03,43,0.10
2009,04,15,03,44,0.10
2009,04,15,03,45,0.10
2009,04,15,03,46,0.10
2009,04,15,03,47,0.10
2009,04,15,03,48,0.10
2009,04,15,03,49,0.10
2009,04,15,03,50,0.10
2009,04,15,03,51,0.10
2009,04,15,03,52,0.10
2009,04,15,03,53,0.10
2009,04,15,03,54,0.10
2009,04,15,03,55,0.10
2009,04,15,03,56,0.10
2009,04,15,03,57,0.10
2009,04,15,03,58,0.10
2009,04,15,03,59,0.10
2009,04,15,04,00,0.10
2009,04,15,04,01,0.10
2009,04,15,04,02,0.10
2009,04,15,04,03,0.10
2009,04,15,04,04,0.10
2009,04,15,04,05,0.10
2009,04,15,04,06,0.10
2009,04,15,04,07,0.10
2009,04,15,04,08,0.10
2009,04,15,04,09,0.10
2009,04,15,04,10,0.10
2009,04,15,04,11,0.10
2009,04,15,04,12,0.10
2009,04,15,04,13,0.10
2009,04,15,04,14,0.10
2009,04,15,04,15,0.00
2009,04,15,04,16,-0.10
2009,04,15,04,17,-0.10
2009,04,15,04,18,-0.10
2009,04,15,04,19,0.00
2009,04,15,04,20,0.10
2009,04,15,04,21,0.10
2009,04,15,04,22,0.10
2009,04,15,04,23,0.10
2009,04,15,04,24,0.10
2009,04,15,04,25,0.10
2009,04,15,04,26,0.10
2009,04,15,04,27,0.10
2009,04,15,04,28,0.10
2009,04,15,04,29,0.10
2009,04,15,04,30,0.10
2009,04,15,04,31,0.20
2009,04,15,04,32,0.20
2009,04,15,04,33,0.20
2009,04,15,04,34,0.20
2009,04,15,04,35,0.30
2009,04,15,04,36,0.30
2009,04,15,04,37,0.30
2009,04,15,04,38,0.30
2009,04,15,04,39,0.30
2009,04,15,04,40,0.30
2009,04,15,04,41,0.30
2009,04,15,04,42,0.30
2009,04,15,04,43,0.20
2009,04,15,04,44,0.20
2009,04,15,04,45,0.20
2009,04,15,04,46,0.20
2009,04,15,04,47,0.20
2009,04,15,04,48,0.20
2009,04,15,04,49,0.10
2009,04,15,04,50,0.10
2009,04,15,04,51,0.10
2009,04,15,04,52,0.10
2009,04,15,04,53,0.10
2009,04,15,04,54,0.10
2009,04,15,04,55,0.10
2009,04,15,04,56,0.10
2009,04,15,04,57,0.10
2009,04,15,04,58,0.10
2009,04,15,04,59,0.10
2009,04,15,05,00,0.10
2009,04,15,05,01,0.10
2009,04,15,05,02,0.10
2009,04,15,05,03,0.10
2009,04,15,05,04,0.10
2009,04,15,05,05,0.10
2009,04,15,05,06,0.10
2009,04,15,05,07,0.10
2009,04,15,05,08,0.10
2009,04,15,05,09,0.10
2009,04,15,05,10,0.10
2009,04,15,05,11,0.10
2009,04,15,05,12,0.10
2009,04,15,05,13,0.20
2009,04,15,05,14,0.20
2009,04,15,05,15,0.20
2009,04,15,05,16,0.30
2009,04,15,05,17,0.30
2009,04,15,05,18,0.30
2009,04,15,05,19,0.40
2009,04,15,05,20,0.40
2009,04,15,05,21,0.40
2009,04,15,05,22,0.40
2009,04,15,05,23,0.50
2009,04,15,05,24,0.50
2009,04,15,05,25,0.50
2009,04,15,05,26,0.50
2009,04,15,05,27,0.50
2009,04,15,05,28,0.50
2009,04,15,05,29,0.50
2009,04,15,05,30,0.50
2009,04,15,05,31,0.50
2009,04,15,05,32,0.50
2009,04,15,05,33,0.50
2009,04,15,05,34,0.50
2009,04,15,05,35,0.50
2009,04,15,05,36,0.50
2009,04,15,05,37,0.50
2009,04,15,05,38,0.50
2009,04,15,05,39,0.50
2009,04,15,05,40,0.50
2009,04,15,05,41,0.50
2009,04,15,05,42,0.50
2009,04,15,05,43,0.50
2009,04,15,05,44,0.50
2009,04,15,05,45,0.40
2009,04,15,05,46,0.40
2009,04,15,05,47,0.40
2009,04,15,05,48,0.40
2009,04,15,05,49,0.40
2009,04,15,05,50,0.40
2009,04,15,05,51,0.40
2009,04,15,05,52,0.40
2009,04,15,05,53,0.40
2009,04,15,05,54,0.40
2009,04,15,05,55,0.40
2009,04,15,05,56,0.40
2009,04,15,05,57,0.40
2009,04,15,05,58,0.50
2009,04,15,05,59,0.50
2009,04,15,06,00,0.50
2009,04,15,06,01,0.50
2009,04,15,06,02,0.50
2009,04,15,06,03,0.50
2009,04,15,06,04,0.50
2009,04,15,06,05,0.50
2009,04,15,06,06,0.50
2009,04,15,06,07,0.50
2009,04,15,06,08,0.50
2009,04,15,06,09,0.50
2009,04,15,06,10,0.50
2009,04,15,06,11,0.50
2009,04,15,06,12,0.50
2009,04,15,06,13,0.40
2009,04,15,06,14,0.40
2009,04,15,06,15,0.40
2009,04,15,06,16,0.40
2009,04,15,06,17,0.40
2009,04,15,06,18,0.40
2009,04,15,06,19,0.40
2009,04,15,06,20,0.40
2009,04,15,06,21,0.40
2009,04,15,06,22,0.40
2009,04,15,06,23,0.40
2009,04,15,06,24,0.30
2009,04,15,06,25,0.30
2009,04,15,06,26,0.30
2009,04,15,06,27,0.30
2009,04,15,06,28,0.30
2009,04,15,06,29,0.30
2009,04,15,06,30,0.20
2009,04,15,06,31,0.20
2009,04,15,06,32,0.20
2009,04,15,06,33,0.20
2009,04,15,06,34,0.20
2009,04,15,06,35,0.20
2009,04,15,06,36,0.20
2009,04,15,06,37,0.20
2009,04,15,06,38,0.20
2009,04,15,06,39,0.10
2009,04,15,06,40,0.10
2009,04,15,06,41,0.10
2009,04,15,06,42,0.20
2009,04,15,06,43,0.20
2009,04,15,06,44,0.20
2009,04,15,06,45,0.20
2009,04,15,06,46,0.20
2009,04,15,06,47,0.20
2009,04,15,06,48,0.20
2009,04,15,06,49,0.20
2009,04,15,06,50,0.30
2009,04,15,06,51,0.30
2009,04,15,06,52,0.30
2009,04,15,06,53,0.30
2009,04,15,06,54,0.30
2009,04,15,06,55,0.30
2009,04,15,06,56,0.30
2009,04,15,06,57,0.30
2009,04,15,06,58,0.30
2009,04,15,06,59,0.30
2009,04,15,07,00,0.30
2009,04,15,07,01,0.30
2009,04,15,07,02,0.30
2009,04,15,07,03,0.30
2009,04,15,07,04,0.30
2009,04,15,07,05,0.30
2009,04,15,07,06,0.30
2009,04,15,07,07,0.20
2009,04,15,07,08,0.20
2009,04,15,07,09,0.20
2009,04,15,07,10,0.30
2009,04,15,07,11,0.30
2009,04,15,07,12,0.30
2009,04,15,07,13,0.30
2009,04,15,07,14,0.30
2009,04,15,07,15,0.40
2009,04,15,07,16,0.40
2009,04,15,07,17,0.40
2009,04,15,07,18,0.40
2009,04,15,07,19,0.50
2009,04,15,07,20,0.50
2009,04,15,07,21,0.50
2009,04,15,07,22,0.60
2009,04,15,07,23,0.60
2009,04,15,07,24,0.60
2009,04,15,07,25,0.70
2009,04,15,07,26,0.70
2009,04,15,07,27,0.70
2009,04,15,07,28,0.70
2009,04,15,07,29,0.70
2009,04,15,07,30,0.80
2009,04,15,07,31,0.80
2009,04,15,07,32,0.80
2009,04,15,07,33,0.80
2009,04,15,07,34,0.80
2009,04,15,07,35,0.80
2009,04,15,07,36,0.80
2009,04,15,07,37,0.80
2009,04,15,07,38,0.80
2009,04,15,07,39,0.80
2009,04,15,07,40,0.80
2009,04,15,07,41,0.80
2009,04,15,07,42,0.90
2009,04,15,07,43,1.00
2009,04,15,07,44,1.00
2009,04,15,07,45,1.00
2009,04,15,07,46,1.10
2009,04,15,07,47,1.10
2009,04,15,07,48,1.10
2009,04,15,07,49,1.20
2009,04,15,07,50,1.20
2009,04,15,07,51,1.30
2009,04,15,07,52,1.40
2009,04,15,07,53,1.50
2009,04,15,07,54,1.50
2009,04,15,07,55,1.50
2009,04,15,07,56,1.60
2009,04,15,07,57,1.50
2009,04,15,07,58,1.50
2009,04,15,07,59,1.50
2009,04,15,08,00,1.40
2009,04,15,08,01,1.30
2009,04,15,08,02,1.30
2009,04,15,08,03,1.30
2009,04,15,08,04,1.30
2009,04,15,08,05,1.30
2009,04,15,08,06,1.30
2009,04,15,08,07,1.30
2009,04,15,08,08,1.40
2009,04,15,08,09,1.40
2009,04,15,08,10,1.40
2009,04,15,08,11,1.40
2009,04,15,08,12,1.50
2009,04,15,08,13,1.50
2009,04,15,08,14,1.60
2009,04,15,08,15,1.70
2009,04,15,08,16,1.80
2009,04,15,08,17,1.90
2009,04,15,08,18,2.00
2009,04,15,08,19,2.10
2009,04,15,08,20,2.20
2009,04,15,08,21,2.30
2009,04,15,08,22,2.40
2009,04,15,08,23,2.50
2009,04,15,08,24,2.60
2009,04,15,08,25,2.60
2009,04,15,08,26,2.70
2009,04,15,08,27,2.70
2009,04,15,08,28,2.80
2009,04,15,08,29,2.80
2009,04,15,08,30,2.90
2009,04,15,08,31,2.90
2009,04,15,08,32,2.90
2009,04,15,08,33,3.10
2009,04,15,08,34,3.10
2009,04,15,08,35,3.20
2009,04,15,08,36,3.30
2009,04,15,08,37,3.30
2009,04,15,08,38,3.40
2009,04,15,08,39,3.50
2009,04,15,08,40,3.60
2009,04,15,08,41,3.60
2009,04,15,08,42,3.80
2009,04,15,08,43,3.80
2009,04,15,08,44,4.00
2009,04,15,08,45,4.00
2009,04,15,08,46,4.10
2009,04,15,08,47,4.20
2009,04,15,08,48,4.30
2009,04,15,08,49,4.40
2009,04,15,08,50,4.50
2009,04,15,08,51,4.60
2009,04,15,08,52,4.70
2009,04,15,08,53,4.80
2009,04,15,08,54,4.90
2009,04,15,08,55,5.00
2009,04,15,08,56,5.10
2009,04,15,08,57,5.20
2009,04,15,08,58,5.30
2009,04,15,08,59,5.40
2009,04,15,09,00,5.60
2009,04,15,09,01,5.70
2009,04,15,09,02,5.80
2009,04,15,09,03,5.90
2009,04,15,09,04,6.00
2009,04,15,09,05,6.20
2009,04,15,09,06,6.20
2009,04,15,09,07,6.30
2009,04,15,09,08,6.50
2009,04,15,09,09,6.60
2009,04,15,09,10,6.70
2009,04,15,09,11,6.80
2009,04,15,09,12,6.90
2009,04,15,09,13,6.90
2009,04,15,09,14,7.00
2009,04,15,09,15,7.00
2009,04,15,09,16,7.10
2009,04,15,09,17,7.20
2009,04,15,09,18,7.30
2009,04,15,09,19,7.30
2009,04,15,09,20,7.40
2009,04,15,09,21,7.50
2009,04,15,09,22,7.60
2009,04,15,09,23,7.60
2009,04,15,09,24,7.70
2009,04,15,09,25,7.80
2009,04,15,09,26,7.80
2009,04,15,09,27,7.90
2009,04,15,09,28,7.90
2009,04,15,09,29,8.00
2009,04,15,09,30,8.00
2009,04,15,09,31,8.00
2009,04,15,09,32,8.10
2009,04,15,09,33,8.20
2009,04,15,09,34,8.20
2009,04,15,09,35,8.20
2009,04,15,09,36,8.30
2009,04,15,09,37,8.30
2009,04,15,09,38,8.30
2009,04,15,09,39,8.30
2009,04,15,09,40,8.30
2009,04,15,09,41,8.40
2009,04,15,09,42,8.40
2009,04,15,09,43,8.40
2009,04,15,09,44,8.50
2009,04,15,09,45,8.50
2009,04,15,09,46,8.50
2009,04,15,09,47,8.50
2009,04,15,09,48,8.50
2009,04,15,09,49,8.40
2009,04,15,09,50,8.40
2009,04,15,09,51,8.40
2009,04,15,09,52,8.40
2009,04,15,09,53,8.40
2009,04,15,09,54,8.50
2009,04,15,09,55,8.50
2009,04,15,09,56,8.50
2009,04,15,09,57,8.50
2009,04,15,09,58,8.50
2009,04,15,09,59,8.60
2009,04,15,10,00,8.60
2009,04,15,10,01,8.60
2009,04,15,10,02,8.70
2009,04,15,10,03,8.70
2009,04,15,10,04,8.70
2009,04,15,10,05,8.80
2009,04,15,10,06,8.80
2009,04,15,10,07,8.80
2009,04,15,10,08,8.80
2009,04,15,10,09,8.80
2009,04,15,10,10,8.80
2009,04,15,10,11,8.80
2009,04,15,10,12,8.80
2009,04,15,10,13,8.80
2009,04,15,10,14,8.90
2009,04,15,10,15,8.90
2009,04,15,10,16,8.90
2009,04,15,10,17,8.90
2009,04,15,10,18,8.90
2009,04,15,10,19,8.90
2009,04,15,10,20,8.90
2009,04,15,10,21,8.80
2009,04,15,10,22,8.90
2009,04,15,10,23,8.90
2009,04,15,10,24,8.90
2009,04,15,10,25,8.90
2009,04,15,10,26,8.90
2009,04,15,10,27,9.00
2009,04,15,10,28,9.00
2009,04,15,10,29,9.10
2009,04,15,10,30,9.10
2009,04,15,10,31,9.20
2009,04,15,10,32,9.20
2009,04,15,10,33,9.20
2009,04,15,10,34,9.20
2009,04,15,10,35,9.30
2009,04,15,10,36,9.40
2009,04,15,10,37,9.40
2009,04,15,10,38,9.40
2009,04,15,10,39,9.50
2009,04,15,10,40,9.60
2009,04,15,10,41,9.70
2009,04,15,10,42,9.70
2009,04,15,10,43,9.80
2009,04,15,10,44,9.90
2009,04,15,10,45,9.90
2009,04,15,10,46,9.90
2009,04,15,10,47,9.90
2009,04,15,10,48,9.90
2009,04,15,10,49,10.00
2009,04,15,10,50,10.10
2009,04,15,10,51,10.10
2009,04,15,10,52,10.10
2009,04,15,10,53,10.10
2009,04,15,10,54,10.10
2009,04,15,10,55,10.10
2009,04,15,10,56,10.10
2009,04,15,10,57,10.20
2009,04,15,10,58,10.20
2009,04,15,10,59,10.20
2009,04,15,11,00,10.20
2009,04,15,11,01,10.20
2009,04,15,11,02,10.20
2009,04,15,11,03,10.20
2009,04,15,11,04,10.20
2009,04,15,11,05,10.20
2009,04,15,11,06,10.20
2009,04,15,11,07,10.10
2009,04,15,11,08,10.20
2009,04,15,11,09,10.20
2009,04,15,11,10,10.10
2009,04,15,11,11,10.10
2009,04,15,11,12,10.20
2009,04,15,11,13,10.20
2009,04,15,11,14,10.30
2009,04,15,11,15,10.40
2009,04,15,11,16,10.50
2009,04,15,11,17,10.60
2009,04,15,11,18,10.60
2009,04,15,11,19,10.60
2009,04,15,11,20,10.70
2009,04,15,11,21,10.70
2009,04,15,11,22,10.70
2009,04,15,11,23,10.80
2009,04,15,11,24,10.80
2009,04,15,11,25,10.80
2009,04,15,11,26,10.80
2009,04,15,11,27,10.50
2009,04,15,11,28,10.30
2009,04,15,11,29,10.30
2009,04,15,11,30,10.30
2009,04,15,11,31,10.30
2009,04,15,11,32,10.30
2009,04,15,11,33,10.30
2009,04,15,11,34,10.30
2009,04,15,11,35,10.40
2009,04,15,11,36,10.40
2009,04,15,11,37,10.40
2009,04,15,11,38,10.40
2009,04,15,11,39,10.50
2009,04,15,11,40,10.60
2009,04,15,11,41,10.70
2009,04,15,11,42,10.70
2009,04,15,11,43,10.80
2009,04,15,11,44,10.80
2009,04,15,11,45,10.90
2009,04,15,11,46,10.90
2009,04,15,11,47,10.90
2009,04,15,11,48,11.10
2009,04,15,11,49,11.10
2009,04,15,11,50,11.20
2009,04,15,11,51,11.20
2009,04,15,11,52,11.20
2009,04,15,11,53,11.20
2009,04,15,11,54,11.20
2009,04,15,11,55,11.30
2009,04,15,11,56,11.40
2009,04,15,11,57,11.40
2009,04,15,11,58,11.40
2009,04,15,11,59,11.40
2009,04,15,12,00,11.40
2009,04,15,12,01,11.40
2009,04,15,12,02,11.40
2009,04,15,12,03,11.40
2009,04,15,12,04,11.40
2009,04,15,12,05,11.40
2009,04,15,12,06,11.40
2009,04,15,12,07,11.40
2009,04,15,12,08,11.40
2009,04,15,12,09,11.40
2009,04,15,12,10,11.30
2009,04,15,12,11,11.20
2009,04,15,12,12,11.20
2009,04,15,12,13,11.20
2009,04,15,12,14,11.20
2009,04,15,12,15,11.10
2009,04,15,12,16,11.20
2009,04,15,12,17,11.20
2009,04,15,12,18,11.30
2009,04,15,12,19,11.30
2009,04,15,12,20,11.30
2009,04,15,12,21,11.30
2009,04,15,12,22,11.40
2009,04,15,12,23,11.40
2009,04,15,12,24,11.50
2009,04,15,12,25,11.60
2009,04,15,12,26,11.60
2009,04,15,12,27,11.60
2009,04,15,12,28,11.60
2009,04,15,12,29,11.50
2009,04,15,12,30,11.50
2009,04,15,12,31,11.60
2009,04,15,12,32,11.60
2009,04,15,12,33,11.60
2009,04,15,12,34,11.40
2009,04,15,12,35,11.40
2009,04,15,12,36,11.40
2009,04,15,12,37,11.40
2009,04,15,12,38,11.40
2009,04,15,12,39,11.40
2009,04,15,12,40,11.50
2009,04,15,12,41,11.60
2009,04,15,12,42,11.60
2009,04,15,12,43,11.60
2009,04,15,12,44,11.60
2009,04,15,12,45,11.50
2009,04,15,12,46,11.50
2009,04,15,12,47,11.60
2009,04,15,12,48,11.60
2009,04,15,12,49,11.60
2009,04,15,12,50,11.60
2009,04,15,12,51,11.60
2009,04,15,12,52,11.60
2009,04,15,12,53,11.50
2009,04,15,12,54,11.40
2009,04,15,12,55,11.30
2009,04,15,12,56,11.30
2009,04,15,12,57,11.40
2009,04,15,12,58,11.40
2009,04,15,12,59,11.40
2009,04,15,13,00,11.40
2009,04,15,13,01,11.40
2009,04,15,13,02,11.50
2009,04,15,13,03,11.60
2009,04,15,13,04,11.70
2009,04,15,13,05,11.70
2009,04,15,13,06,11.80
2009,04,15,13,07,11.80
2009,04,15,13,08,11.80
2009,04,15,13,09,11.80
2009,04,15,13,10,11.80
2009,04,15,13,11,11.90
2009,04,15,13,12,11.90
2009,04,15,13,13,11.90
2009,04,15,13,14,11.80
2009,04,15,13,15,11.80
2009,04,15,13,16,11.70
2009,04,15,13,17,11.70
2009,04,15,13,18,11.70
2009,04,15,13,19,11.80
2009,04,15,13,20,11.80
2009,04,15,13,21,11.80
2009,04,15,13,22,11.60
2009,04,15,13,23,11.60
2009,04,15,13,24,11.50
2009,04,15,13,25,11.50
2009,04,15,13,26,11.60
2009,04,15,13,27,11.70
2009,04,15,13,28,11.80
2009,04,15,13,29,11.80
2009,04,15,13,30,11.80
2009,04,15,13,31,11.80
2009,04,15,13,32,11.80
2009,04,15,13,33,11.90
2009,04,15,13,34,12.00
2009,04,15,13,35,12.00
2009,04,15,13,36,11.90
2009,04,15,13,37,11.90
2009,04,15,13,38,11.80
2009,04,15,13,39,11.80
2009,04,15,13,40,11.90
2009,04,15,13,41,11.90
2009,04,15,13,42,11.80
2009,04,15,13,43,11.80
2009,04,15,13,44,11.80
2009,04,15,13,45,11.80
2009,04,15,13,46,11.90
2009,04,15,13,47,12.10
2009,04,15,13,48,12.20
2009,04,15,13,49,12.30
2009,04,15,13,50,12.30
2009,04,15,13,51,12.40
2009,04,15,13,52,12.50
2009,04,15,13,53,12.60
2009,04,15,13,54,12.60
2009,04,15,13,55,12.70
2009,04,15,13,56,12.70
2009,04,15,13,57,12.70
2009,04,15,13,58,12.70
2009,04,15,13,59,12.80
2009,04,15,14,00,12.80
2009,04,15,14,01,12.90
2009,04,15,14,02,12.90
2009,04,15,14,03,12.80
2009,04,15,14,04,12.80
2009,04,15,14,05,12.80
2009,04,15,14,06,12.80
2009,04,15,14,07,12.80
2009,04,15,14,08,12.80
2009,04,15,14,09,12.80
2009,04,15,14,10,12.80
2009,04,15,14,11,12.80
2009,04,15,14,12,12.80
2009,04,15,14,13,12.80
2009,04,15,14,14,12.80
2009,04,15,14,15,12.80
2009,04,15,14,16,12.80
2009,04,15,14,17,12.80
2009,04,15,14,18,12.80
2009,04,15,14,19,12.80
2009,04,15,14,20,12.90
2009,04,15,14,21,12.90
2009,04,15,14,22,13.00
2009,04,15,14,23,13.10
2009,04,15,14,24,13.10
2009,04,15,14,25,13.10
2009,04,15,14,26,13.00
2009,04,15,14,27,13.00
2009,04,15,14,28,13.00
2009,04,15,14,29,13.00
2009,04,15,14,30,13.00
2009,04,15,14,31,13.00
2009,04,15,14,32,13.00
2009,04,15,14,33,13.00
2009,04,15,14,34,13.10
2009,04,15,14,35,13.10
2009,04,15,14,36,13.20
2009,04,15,14,37,13.20
2009,04,15,14,38,13.30
2009,04,15,14,39,13.20
2009,04,15,14,40,13.20
2009,04,15,14,41,13.30
2009,04,15,14,42,13.30
2009,04,15,14,43,13.30
2009,04,15,14,44,13.40
2009,04,15,14,45,13.50
2009,04,15,14,46,13.60
2009,04,15,14,47,13.60
2009,04,15,14,48,13.70
2009,04,15,14,49,13.70
2009,04,15,14,50,13.70
2009,04,15,14,51,13.70
2009,04,15,14,52,13.70
2009,04,15,14,53,13.70
2009,04,15,14,54,13.70
2009,04,15,14,55,13.70
2009,04,15,14,56,13.70
2009,04,15,14,57,13.70
2009,04,15,14,58,13.70
2009,04,15,14,59,13.80
2009,04,15,15,00,13.80
2009,04,15,15,01,13.80
2009,04,15,15,02,13.80
2009,04,15,15,03,13.80
2009,04,15,15,04,13.70
2009,04,15,15,05,13.70
2009,04,15,15,06,13.70
2009,04,15,15,07,13.70
2009,04,15,15,08,13.70
2009,04,15,15,09,13.70
2009,04,15,15,10,13.70
2009,04,15,15,11,13.80
2009,04,15,15,12,13.80
2009,04,15,15,13,13.80
2009,04,15,15,14,13.80
2009,04,15,15,15,13.80
2009,04,15,15,16,13.80
2009,04,15,15,17,13.80
2009,04,15,15,18,13.80
2009,04,15,15,19,13.90
2009,04,15,15,20,14.00
2009,04,15,15,21,14.00
2009,04,15,15,22,14.00
2009,04,15,15,23,14.00
2009,04,15,15,24,14.00
2009,04,15,15,25,14.00
2009,04,15,15,26,14.00
2009,04,15,15,27,14.00
2009,04,15,15,28,14.00
2009,04,15,15,29,14.00
2009,04,15,15,30,14.00
2009,04,15,15,31,14.00
2009,04,15,15,32,14.00
2009,04,15,15,33,14.00
2009,04,15,15,34,13.90
2009,04,15,15,35,13.80
2009,04,15,15,36,13.80
2009,04,15,15,37,13.80
2009,04,15,15,38,13.80
2009,04,15,15,39,13.80
2009,04,15,15,40,13.70
2009,04,15,15,41,13.70
2009,04,15,15,42,13.70
2009,04,15,15,43,13.70
2009,04,15,15,44,13.70
2009,04,15,15,45,13.70
2009,04,15,15,46,13.80
2009,04,15,15,47,13.80
2009,04,15,15,48,13.90
2009,04,15,15,49,13.90
2009,04,15,15,50,13.90
2009,04,15,15,51,13.90
2009,04,15,15,52,13.90
2009,04,15,15,53,13.80
2009,04,15,15,54,13.80
2009,04,15,15,55,13.70
2009,04,15,15,56,13.70
2009,04,15,15,57,13.70
2009,04,15,15,58,13.70
2009,04,15,15,59,13.60
2009,04,15,16,00,13.50
2009,04,15,16,01,13.50
2009,04,15,16,02,13.40
2009,04,15,16,03,13.30
2009,04,15,16,04,13.30
2009,04,15,16,05,13.30
2009,04,15,16,06,13.30
2009,04,15,16,07,13.20
2009,04,15,16,08,13.10
2009,04,15,16,09,13.10
2009,04,15,16,10,13.00
2009,04,15,16,11,12.90
2009,04,15,16,12,12.90
2009,04,15,16,13,12.80
2009,04,15,16,14,12.80
2009,04,15,16,15,12.80
2009,04,15,16,16,12.70
2009,04,15,16,17,12.70
2009,04,15,16,18,12.60
2009,04,15,16,19,12.50
2009,04,15,16,20,12.40
2009,04,15,16,21,12.40
2009,04,15,16,22,12.30
2009,04,15,16,23,12.30
2009,04,15,16,24,12.20
2009,04,15,16,25,12.20
2009,04,15,16,26,12.10
2009,04,15,16,27,12.10
2009,04,15,16,28,12.00
2009,04,15,16,29,12.00
2009,04,15,16,30,11.90
2009,04,15,16,31,11.90
2009,04,15,16,32,11.80
2009,04,15,16,33,11.80
2009,04,15,16,34,11.80
2009,04,15,16,35,11.80
2009,04,15,16,36,11.80
2009,04,15,16,37,11.80
2009,04,15,16,38,11.70
2009,04,15,16,39,11.70
2009,04,15,16,40,11.70
2009,04,15,16,41,11.60
2009,04,15,16,42,11.70
2009,04,15,16,43,11.70
2009,04,15,16,44,11.70
2009,04,15,16,45,11.70
2009,04,15,16,46,11.60
2009,04,15,16,47,11.60
2009,04,15,16,48,11.60
2009,04,15,16,49,11.60
2009,04,15,16,50,11.60
2009,04,15,16,51,11.60
2009,04,15,16,52,11.60
2009,04,15,16,53,11.70
2009,04,15,16,54,11.70
2009,04,15,16,55,11.70
2009,04,15,16,56,11.70
2009,04,15,16,57,11.80
2009,04,15,16,58,11.80
2009,04,15,16,59,11.80
2009,04,15,17,00,11.70
2009,04,15,17,01,11.70
2009,04,15,17,02,11.70
2009,04,15,17,03,11.70
2009,04,15,17,04,11.70
2009,04,15,17,05,11.70
2009,04,15,17,06,11.60
2009,04,15,17,07,11.60
2009,04,15,17,08,11.60
2009,04,15,17,09,11.60
2009,04,15,17,10,11.60
2009,04,15,17,11,11.60
2009,04,15,17,12,11.60
2009,04,15,17,13,11.60
2009,04,15,17,14,11.60
2009,04,15,17,15,11.60
2009,04,15,17,16,11.60
2009,04,15,17,17,11.60
2009,04,15,17,18,11.70
2009,04,15,17,19,11.70
2009,04,15,17,20,11.70
2009,04,15,17,21,11.70
2009,04,15,17,22,11.70
2009,04,15,17,23,11.70
2009,04,15,17,24,11.70
2009,04,15,17,25,11.60
2009,04,15,17,26,11.60
2009,04,15,17,27,11.60
2009,04,15,17,28,11.60
2009,04,15,17,29,11.60
2009,04,15,17,30,11.60
2009,04,15,17,31,11.60
2009,04,15,17,32,11.60
2009,04,15,17,33,11.60
2009,04,15,17,34,11.60
2009,04,15,17,35,11.50
2009,04,15,17,36,11.40
2009,04,15,17,37,11.40
2009,04,15,17,38,11.40
2009,04,15,17,39,11.30
2009,04,15,17,40,11.30
2009,04,15,17,41,11.30
2009,04,15,17,42,11.20
2009,04,15,17,43,11.20
2009,04,15,17,44,11.20
2009,04,15,17,45,11.10
2009,04,15,17,46,11.10
2009,04,15,17,47,11.10